Location: Newark
(33.9035°S, 18.4112°E)
Time: 02:27:44
(UTC+00:00)

ISS - Visible Passes

Search period start: 27 January 2020 00:00
Search period end: 06 February 2020 00:00
Orbit: 416 x 423 km, 51.6° (Epoch: 27 January)

Date Brightness Start Highest point End Pass type
(mag) Time Alt. Az. Time Alt. Az. Time Alt. Az.
27 Jan -1.9 01:52:44 24° ENE 01:52:44 24° ENE 01:55:01 10° ESE visible
27 Jan -2.2 03:26:00 10° W 03:28:53 25° SW 03:31:48 10° SSE visible
28 Jan -3.0 02:40:10 31° W 02:41:16 43° SW 02:44:33 10° SE visible
29 Jan -2.8 01:54:35 47° SE 01:54:35 47° SE 01:57:08 10° SE visible
29 Jan -1.1 03:29:46 10° SW 03:31:01 12° SSW 03:32:15 10° S visible
30 Jan -0.6 01:08:55 14° ESE 01:08:55 14° ESE 01:09:32 10° ESE visible
30 Jan -1.5 02:41:52 14° WSW 02:43:14 17° SSW 02:45:33 10° SSE visible
31 Jan -1.8 01:56:09 24° SSW 01:56:09 24° SSW 01:58:27 10° SSE visible
01 Feb -0.6 01:10:23 15° SSE 01:10:23 15° SSE 01:11:09 10° SE visible
02 Feb -0.9 01:57:32 11° SSW 01:57:34 11° SSW 01:58:48 10° S visible
03 Feb -0.4 01:11:41 12° S 01:11:41 12° S 01:12:03 10° SSE visible
